Location: Düngen
(52.0952°N, 10.0219°E)
Time: 15:19:33
(UTC+00:00)

Cosmos 44 Rocket - Pass Details

Date: 11 March 2026
Orbit: 632 x 746 km, 65.1° (Epoch: 14 April)

Event Time Altitude Azimuth Distance (km) Brightness Sun altitude
Rises 19:58:15 0° 315° (NW) 3,193 7.9 -24.7°
Reaches altitude 10° 20:00:44 10° 309° (NW) 2,270 7.0 -25.0°
Maximum altitude 20:05:38 44° 239° (WSW) 1,032 4.3 -25.7°
Enters shadow 20:06:46 38° 205° (SSW) 1,129 4.3 -25.8°
